Wind_Speed
24 24 22 19 19 20 22 23 22 20 19 21 21 21 21 20 19 20 23 24 25 27 28 28 30 30 28 29 30 31 30 25 10 20 25 30 25 27 30 29 27 24 26
17 15 14 13 12 13 12 10 9 8 9 11 14 16 18 20 21 19 21 22 25 28 28 28 30 28 29 28 29 32 34 31 23 18 22 22 20 25 24 23 23 21 19
16 17 15 13 12 10 7 4 5 8 11 14 17 18 20 22 22 23 22 24 25 28 27 29 30 30 29 27 30 29 33 30 29 23 15 14 15 15 18 16 15 13 11
16 17 15 11 7 4 1 5 9 11 14 16 18 19 21 23 24 26 25 24 25 27 27 27 28 29 30 29 28 30 31 28 25 22 14 13 14 12 11 11 5 9 10
13 10 9 7 6 6 8 9 11 13 15 17 19 19 20 20 20 19 21 25 27 28 28 28 29 31 30 30 30 30 31 24 19 11 9 8 9 8 7 3 7 12 9
9 9 8 9 9 11 12 13 14 15 16 17 18 19 21 19 20 21 21 24 27 27 26 26 27 29 28 28 32 33 34 27 19 15 12 12 10 9 7 10 14 6 2
7 7 10 12 14 14 15 16 15 16 18 18 19 21 21 23 24 23 22 24 24 25 27 26 26 26 26 26 26 26 18 18 16 18 14 12 12 14 14 12 9 5 5
9 8 13 16 15 15 17 20 19 18 19 20 21 25 25 24 25 25 25 26 27 30 29 26 24 24 25 24 24 21 19 19 16 11 14 12 12 15 16 15 12 14 16
9 11 12 15 17 21 22 23 21 23 22 23 22 23 23 23 22 24 25 26 26 27 26 22 23 22 23 25 27 24 22 20 16 16 12 11 12 14 17 19 18 16 5
8 8 11 16 19 20 20 20 19 17 18 19 21 19 17 21 22 24 24 23 21 21 22 20 18 19 22 24 31 30 25 25 23 18 15 15 16 16 15 15 22 14 12
6 10 13 14 15 17 15 15 16 20 20 20 20 19 22 25 25 23 24 21 21 19 15 15 15 13 19 23 30 32 26 28 22 25 23 21 18 16 14 14 17 16 12
8 10 12 13 12 12 15 18 20 22 21 20 22 21 27 31 29 24 22 22 18 16 17 18 16 14 14 23 30 27 20 26 29 29 24 21 21 19 16 14 13 11 8
10 11 10 11 12 14 16 14 15 19 18 19 20 21 24 28 33 32 25 20 17 15 15 14 13 13 11 19 17 26 27 32 31 22 20 21 21 22 22 23 21 20 20
12 11 10 11 10 11 13 14 14 20 19 19 19 20 22 26 30 31 29 26 20 17 13 15 16 18 12 8 11 9 7 13 30 26 21 25 26 24 24 23 22 20 20
12 11 10 8 6 5 7 11 15 15 17 17 18 17 20 22 27 24 23 23 20 16 15 20 23 21 18 19 23 22 20 19 16 26 25 23 24 24 22 21 20 14 13
10 8 6 5 5 5 8 9 9 10 9 13 16 18 19 19 21 23 20 18 17 17 19 17 16 21 20 19 18 26 27 19 11 15 16 19 20 19 19 14 14 12 12
9 8 7 5 5 5 6 7 9 10 9 9 10 13 17 18 20 23 22 17 17 20 17 18 16 15 20 18 23 23 26 20 15 17 16 13 12 13 12 11 10 10 8
10 7 6 4 3 2 2 4 5 8 11 11 9 10 16 15 17 20 22 24 25 23 20 16 16 12 11 12 12 15 17 16 17 14 12 10 6 3 6 8 8 8 8
14 11 9 7 5 3 3 2 4 5 7 9 12 12 13 13 13 15 16 19 17 16 17 19 16 16 18 15 11 9 7 9 13 15 12 12 13 10 7 5 7 7 8
19 14 11 11 10 9 8 7 7 7 8 11 13 14 15 17 18 18 14 14 12 11 13 15 12 10 10 16 11 12 11 6 6 8 8 9 12 11 9 6 5 4 6
22 19 17 15 16 13 12 11 11 11 13 15 18 17 13 15 17 14 14 11 8 6 6 7 7 8 9 10 7 7 8 8 4 4 7 8 8 8 8 8 8 8 7
21 20 20 20 19 16 17 15 14 14 16 17 20 19 15 15 16 16 15 12 10 7 5 6 6 6 7 8 7 5 5 4 4 3 2 1 2 3 3 4 4 5 5
23 20 19 19 19 18 17 18 17 15 15 15 16 16 15 15 15 14 12 11 9 7 5 4 4 6 7 7 6 4 6 7 5 5 4 5 4 5 7 5 5 4 4
25 21 14 15 18 16 18 18 16 15 15 15 15 16 16 14 13 13 11 9 9 7 6 6 6 6 6 6 6 3 3 5 3 4 2 1 1 3 3 3 2 3 6
25 22 20 21 18 16 15 15 15 13 12 13 14 14 15 15 12 10 11 9 9 9 7 6 5 4 3 4 5 4 5 5 5 4 6 4 2 3 3 4 6 8 10
27 26 24 21 19 17 16 15 12 10 12 12 12 12 12 11 10 12 11 11 9 8 8 6 5 4 6 7 6 7 7 7 9 9 7 7 6 5 4 6 8 9 9
Wind_Direction
213 222 227 237 243 252 255 257 265 272 277 276 282 289 293 296 295 294 292 292 286 283 279 275 274 271 257 256 247 244 222 218 225 264 280 282 283 283 292 291 283 276 265
188 195 204 211 216 224 234 232 231 239 260 283 291 293 296 296 297 294 291 291 290 282 282 278 273 271 261 253 245 244 225 229 226 249 257 267 280 289 293 288 282 276 266
151 154 146 145 151 155 169 197 246 274 285 290 293 296 296 295 292 289 288 287 285 279 277 271 271 269 258 248 242 234 226 226 229 232 245 264 283 289 295 300 295 276 251
109 117 119 114 106 101 14 310 308 305 301 300 301 300 297 295 292 291 290 285 280 279 276 273 270 266 260 256 244 240 226 217 215 216 234 251 267 277 282 288 249 178 160
92 98 84 77 58 23 356 338 325 321 316 313 310 308 307 306 301 302 289 286 285 282 278 275 275 272 273 272 251 241 226 209 202 198 225 238 235 247 252 228 128 103 82
51 52 46 43 28 14 357 347 339 331 325 323 321 320 320 313 307 311 304 293 285 282 279 281 276 277 278 275 265 252 247 207 192 187 206 226 220 229 206 183 154 131 98
79 46 38 34 29 19 9 1 354 344 339 332 326 325 321 320 322 319 315 305 296 288 288 281 277 274 278 269 256 241 218 208 216 216 200 206 210 205 189 178 171 145 128
80 59 41 34 28 16 13 12 2 349 337 329 328 337 333 327 330 328 324 313 302 294 290 282 274 268 266 255 221 196 198 196 196 202 223 212 205 198 198 188 168 134 133
71 50 40 34 27 21 16 8 358 350 341 337 342 341 338 335 337 329 324 319 307 291 288 282 278 270 248 241 205 192 191 192 190 178 207 205 194 185 174 163 145 137 121
69 55 48 34 32 27 17 5 355 346 345 352 350 0 1 348 348 345 346 336 323 311 310 304 295 277 257 234 203 195 187 188 183 177 179 173 167 164 167 181 168 155 136
81 60 53 45 40 35 26 23 14 15 14 8 6 7 8 8 358 358 357 345 341 324 329 325 309 292 256 231 208 199 201 186 168 162 158 153 153 154 161 168 175 180 157
100 78 66 61 56 39 33 34 34 31 24 15 13 10 17 18 16 7 4 1 355 351 349 338 317 298 280 236 211 210 205 172 159 150 144 142 139 135 133 144 151 156 149
114 97 93 79 63 51 41 31 23 31 28 20 17 13 6 10 17 19 18 12 17 27 22 13 356 331 288 225 201 205 191 169 154 145 143 140 136 133 129 123 120 116 113
115 106 96 91 68 50 46 44 37 35 33 31 21 11 9 9 13 14 18 16 17 26 35 39 47 57 68 102 105 99 86 165 155 142 139 136 132 131 125 125 118 111 100
113 100 91 85 76 55 42 40 42 41 39 34 31 21 7 0 9 9 12 16 18 33 51 60 58 49 54 72 94 111 91 87 100 130 136 140 137 134 128 132 127 114 115
122 120 117 109 88 58 45 43 36 31 28 38 33 29 34 24 15 16 16 17 29 49 55 44 46 62 51 49 81 96 99 128 133 137 149 148 142 142 135 142 139 131 134
154 158 153 128 95 71 55 44 28 38 29 38 37 31 29 31 25 23 25 33 42 59 45 55 49 54 73 70 74 77 97 106 97 91 88 89 119 133 127 133 139 130 126
188 180 175 181 172 125 62 39 31 17 10 12 19 10 16 25 29 28 27 38 41 42 39 37 44 58 63 67 77 88 104 108 106 101 95 95 88 129 131 148 140 138 143
209 208 212 218 233 232 250 303 342 351 344 339 342 352 359 11 13 20 22 28 29 37 35 34 47 55 53 54 68 84 114 144 154 151 163 168 180 179 148 146 156 155 166
223 224 228 239 246 246 249 263 284 301 315 321 325 326 338 343 346 351 3 16 18 28 34 34 52 49 50 10 33 53 62 90 135 158 173 178 168 164 164 163 161 173 208
225 225 231 238 246 254 263 267 278 289 297 306 308 313 330 325 321 331 340 342 325 328 352 8 3 333 325 338 345 16 44 76 95 145 150 151 162 172 185 188 183 195 199
228 227 231 239 252 260 269 279 280 286 295 299 307 316 330 321 319 323 330 339 335 317 292 275 292 295 292 321 336 342 343 336 344 349 330 229 188 175 191 209 210 211 215
234 229 231 242 256 264 273 279 286 294 294 296 306 313 320 325 330 339 341 343 348 338 317 302 298 297 299 297 290 280 295 308 331 333 321 253 246 269 275 264 257 261 264
234 230 230 243 255 268 270 275 285 290 299 300 303 310 314 320 331 349 351 341 346 355 345 325 320 317 324 326 339 290 308 333 278 294 321 268 221 259 252 247 256 293 301
225 217 223 236 251 263 271 270 271 281 296 298 305 305 305 303 310 319 339 333 332 331 328 341 344 330 317 305 303 303 282 286 248 242 279 247 238 247 256 282 302 306 304
222 219 230 241 251 261 258 251 254 278 291 290 296 300 312 315 308 307 312 312 316 330 328 312 321 305 293 303 285 269 262 257 241 254 243 241 239 237 268 300 310 310 308
Height
748 753 756 762 767 771 771 773 775 776 776 776 774 772 770 770 768 765 764 763 761 760 759 757 755 756 755 754 757 757 755 758 758 754 754 752 751 753 754 753 751 751 752
744 751 755 758 761 764 767 768 768 769 771 771 770 768 767 765 765 761 758 757 754 753 751 750 746 747 746 747 746 746 748 750 753 751 752 749 747 747 748 746 745 745 745
745 749 755 757 759 761 763 764 765 766 765 765 765 764 763 761 758 755 752 750 747 746 743 741 738 738 737 737 736 737 740 743 744 747 744 744 743 743 743 741 741 741 742
759 757 758 759 760 761 760 762 763 760 761 760 759 758 757 755 752 748 745 742 740 738 735 733 730 730 728 729 730 727 730 734 736 737 738 739 741 741 740 739 740 737 738
756 762 761 761 759 760 759 758 759 757 756 755 754 753 751 749 745 741 739 735 732 730 727 724 722 720 721 721 720 718 720 725 728 732 734 737 737 738 737 736 738 737 738
766 768 767 761 757 756 757 756 755 754 754 752 750 748 746 742 739 736 732 728 724 721 717 714 713 713 712 711 710 711 712 714 722 725 727 733 732 734 734 734 735 738 740
767 770 765 760 756 757 757 755 753 752 750 749 747 744 741 736 732 729 725 720 716 712 710 707 705 704 704 703 702 705 708 712 715 718 722 724 727 728 730 733 734 737 739
764 770 763 759 760 759 754 750 750 749 749 746 743 739 735 731 727 723 718 713 708 704 701 699 698 697 696 696 697 701 705 708 710 713 719 721 724 725 727 730 733 735 740
765 764 764 760 757 753 752 751 750 750 748 745 740 736 732 728 724 718 713 707 701 696 693 691 691 690 689 689 693 696 700 703 706 703 716 720 722 723 725 728 732 736 741
762 764 759 755 754 756 756 755 755 753 749 745 740 736 731 726 720 715 709 703 697 693 689 687 686 685 684 685 686 690 694 695 698 701 712 718 720 722 723 726 728 733 737
762 759 756 758 759 760 761 760 756 752 748 745 739 734 729 724 720 712 707 701 696 691 688 685 684 683 682 683 684 686 690 691 695 700 711 715 719 722 723 725 728 731 733
761 761 760 762 762 764 762 759 757 754 749 743 739 734 729 723 718 713 707 703 697 693 690 686 682 680 679 680 682 686 691 692 695 702 708 713 717 720 724 727 730 732 732
762 761 763 764 764 764 762 761 759 754 750 746 743 737 733 727 720 717 709 705 701 696 693 690 684 679 677 678 681 684 688 690 694 703 708 714 717 720 723 726 731 734 735
761 762 763 764 765 766 765 763 759 754 751 748 744 742 738 733 724 721 714 710 706 701 697 692 689 685 681 680 684 688 690 694 694 699 710 715 721 723 725 729 731 736 739
762 763 765 766 767 767 765 762 759 756 754 752 746 746 743 738 733 729 723 717 712 707 702 698 695 692 691 691 685 685 688 694 702 704 714 720 723 725 726 729 732 737 743
762 765 767 768 768 768 765 762 761 759 758 753 749 749 746 743 739 734 728 724 719 714 709 706 704 701 700 699 698 696 699 709 717 715 716 721 724 728 726 732 734 737 744
763 765 767 768 767 766 765 764 762 760 758 754 754 753 748 744 742 738 733 729 724 720 718 714 713 712 710 710 709 708 710 714 719 718 723 726 728 733 732 734 736 739 744
763 764 765 766 766 765 765 764 762 761 758 757 756 754 751 747 744 742 738 733 728 726 724 722 721 720 718 718 717 717 718 721 722 725 729 731 733 735 735 738 738 740 745
760 761 763 763 764 764 764 763 762 761 760 758 756 755 753 748 747 745 741 738 736 734 731 728 727 726 726 725 724 725 726 727 729 731 733 733 737 739 739 740 740 743 747
757 759 759 762 762 763 763 761 760 760 759 757 756 755 752 748 747 745 743 740 740 738 736 734 732 730 729 730 731 730 730 730 731 732 733 735 738 738 739 741 743 744 747
752 755 757 759 760 760 761 760 759 758 757 754 754 753 750 747 746 744 743 742 740 740 740 738 737 736 734 733 733 733 734 735 735 735 735 735 736 737 739 741 742 744 746
748 750 753 755 756 756 757 756 756 755 754 753 750 748 747 746 745 743 741 740 739 738 737 737 737 736 734 734 734 733 734 735 736 736 737 737 737 738 740 742 743 745 746
745 746 749 751 752 753 752 752 752 751 751 750 748 745 744 743 742 740 739 738 737 737 736 736 736 735 735 735 735 736 736 736 735 736 736 736 738 739 741 742 744 745 745
739 743 745 747 748 748 748 748 748 748 747 746 744 743 742 742 741 739 738 737 737 736 735 735 735 734 734 734 734 735 735 735 735 736 737 737 738 740 741 742 742 742 743
734 736 739 741 743 744 744 744 745 745 744 742 741 740 739 739 738 737 737 736 736 735 735 734 733 734 734 734 735 735 735 736 736 737 737 738 738 739 740 740 740 739 740
728 732 735 737 739 740 740 741 741 741 740 739 738 737 736 735 735 734 734 734 733 733 733 733 733 732 732 732 733 733 734 735 735 736 736 736 736 737 737 737 737 736 736